Location: Blanot
(47.1713°N, 4.2340°E)
Time: 07:51:08
(UTC+00:00)

CZ-2D R/B - Pass Details

Date: 14 July 2020
Orbit: 792 x 844 km, 98.7° (Epoch: 14 August)

Event Time Altitude Azimuth Distance (km) Brightness Sun altitude
Rises 02:19:14 0° 7° (N) 3,346 6.5 -13.3°
Reaches altitude 10° 02:21:42 10° 0° (N) 2,418 5.4 -13.1°
Maximum altitude 02:26:35 38° 294° (WNW) 1,246 3.0 -12.6°
Enters shadow 02:30:27 16° 234° (SW) 2,065 3.6 -12.2°
